Regional Weather Roundup
Issued by NWS Sioux Falls, SD

Home | Current Version | Previous Version | Text Only | Print | Product List | Glossary On
Versions: 1 2 3 4 5 6 7 8 9 10 11 12 13 14 15 16 17 18 19 20 21 22 23 24 25 26 27 28 29 30 31 32 33 34 35 36 37 38 39 40 41 42 43 44 45 46 47 48 49 50
000
ASUS43 KFSD 111710
RWRFSD

WEATHER ROUNDUP FOR SE SOUTH DAKOTA/SW MINNESOTA/NW IOWA
NATIONAL WEATHER SERVICE SIOUX FALLS SD
1100 AM CST MON DEC 11 2017

NOTE: "FAIR" INDICATES FEW OR NO CLOUDS BELOW 12,000 FEET WITH NO
SIGNIFICANT WEATHER AND OR OBSTRUCTIONS TO VISIBILITY.


SDZ038>040-050-052>070-111800-
SOUTHEAST SOUTH DAKOTA

CITY           SKY/WX    TMP DP  RH WIND       PRES   REMARKS
BROOKINGS      CLOUDY    35  31  85 N31       29.94R WCI  22
CHAMBERLAIN    CLOUDY    42  32  68 NW24      30.14R
HURON          CLOUDY    40  33  76 N21G33    30.06R
MADISON        LGT RAIN  36  36 100 N29G37    29.97R
MITCHELL       CLOUDY    42  34  73 NW25G33   30.06R
SIOUX FALLS    CLOUDY    39  34  82 N26G37    29.96R
WINNER         CLOUDY    42  31  64 NW26G32   30.17R
YANKTON        CLOUDY    43  33  68 NW32G39   30.02R
$$

MNZ071-072-080-081-089-090-097-098-111800-
SOUTHWEST MINNESOTA

CITY           SKY/WX    TMP DP  RH WIND       PRES   REMARKS
FAIRMONT       CLOUDY    38  33  82 NW23G29   29.81R
JACKSON        CLOUDY    36  32  87 MISG      29.84R
LUVERNE        CLOUDY    36  32  87 N25G35    29.92R
MARSHALL       CLOUDY    36  32  85 N29G39    29.89R
MONTEVIDEO     CLOUDY    34  30  86 N28G41    29.92R WCI  20
PIPESTONE      CLOUDY    36  30  80 N25G40    29.91R
REDWOOD FALLS  CLOUDY    37  31  78 NW21G30   29.85R
TRACY          CLOUDY    37  34  90 N28G39    29.88R
WINDOM         LGT RAIN  36  25  64 NW31G37   29.84R
WORTHINGTON    CLOUDY    36  33  89 NW25G32   29.88R
$$

IAZ001>003-012>014-020>022-031-032-NEZ013-014-SDZ071-111800-
NORTHWEST IOWA

CITY           SKY/WX    TMP DP  RH WIND       PRES   REMARKS
CHEROKEE       CLOUDY    40  35  82 NW20G30   29.89R
DENISON        CLOUDY    43  32  65 NW28G41   29.91R
ESTHERVILLE    CLOUDY    37  33  85 NW24G36   29.82R
LE MARS        CLOUDY    43  34  70 NW28G39   29.93R
ORANGE CITY    DRIZZLE   41  37  87 NW21G28   29.92R
SHELDON        CLOUDY    39  34  81 NW30G37   29.88R
SIOUX CITY     CLOUDY    45  33  63 NW36G45   29.93R
SPENCER        LGT RAIN  38  34  85 NW18G30   29.86R
STORM LAKE     CLOUDY    39  34  81 NW33G45   29.85S
$$

ABBREVIATIONS USED IN REMARKS
   TC - TEMPERATURE IN CELSIUS
  WCI - WIND CHILL INDEX
   HX - HEAT INDEX
  VSB - VISIBILITY





USA.gov is the U.S. government's official web portal to all federal, state and local government web resources and services.